STARLINK-31510, 59575

Orbit data source: Space-Track

STARLINK-31510, 59575 is a payload satellite owned by SpaceX/Seattle (US) in LEO that was launched on Tue, 23 Apr 2024 UTC via an FALCON 9 launch vehicle from the Air Force Eastern Test Range (AFETR). Payload-class satellites include a variety of spacecraft equipped with specific instruments for various scientific and technological missions. These include communications satellites like Starlink; space stations such as the ISS; scientific satellites like the Hubble; Earth observation satellites from companies like Planet Labs, Umbra, and HawkEye 360; GPS; miniature CubeSats for education and research; and military/defense satellites.

Loading next visibility...
Identifier
59575, 2024-076M
Orbit
LEO
Last TLE update
12 hours ago
Origin
Manufacturer
SpaceX/Seattle
Mission
Operational spacecraft
Bus & Motor
STARLINK V2M, Unknown motor
Mass
730 kg wet, ~700 kg dry
Launch date (UTC)
2024-04-23 (1 year ago)
Launch vehicle
FALCON 9
Launch site
Air Force Eastern Test Range (AFETR)
Object type
Payload
Rocket body
Debris
Shape & HBR
Unknown
Radar Cross Section
Large (>1 m²)

Expand to show TLE details & history

TLE from 12 hours ago
0 STARLINK-31510
1 59575U 24076M   25181.83401018  .00001658  00000-0  69738-4 0  9999
2 59575  43.0030 347.9806 0001245 275.3578  84.7132 15.27587990 68023
Epoch: 2025-06-30T20:00Z
TLE epoch observation values (Epoch: 2025-06-30T20:00:58.479Z)
Latitude
Longitude
128.59881°
Altitude
482.722 km
Speed
7.626 km/s
True Right ascension
23h 11m 55s
True Declination
0° 00' 00"
Sunlit
Object was in daylight at epoch
Visualization orbit readout
Latitude
-34.92592°
Longitude
77.57644°
Altitude
492.213 km
Speed
7.62 km/s
Apparent Right ascension
18h 45m 57s
Apparent Declination
-84° 28' 29"
Sunlit
Object is in full shadow
Visualization observer readout
Local Sidereal Time
19:57:28
Azimuth
182.059° SSW
Elevation
-34.639°
Doppler factor
1
Orbital elements
Apogee altitude
485.824 km
Perigee altitude
484.115 km
Semi-major axis
6,863.107 km
Eccentricity
0.00012
Inclination
43.003°
RAAN
347.9806°
Arg. of periapsis
275.3578°
True anomaly
Unknown
Mean anomaly
84.7132°
Eccentric anomaly
Unknown
Mean motion
3.81735 °/min
Orbital period
94.31 mins
BSTAR
0.000069738
Loading maneuver chart data...
Loading SW <> Apogee altitude chart data...
Loading historical data...
Loading historical data...
Loading historical data...
Loading historical data...
Loading historical data...
Loading historical data...
Loading historical data...

STARLINK-31510 Visibility forecast

Observer location: undefined°, undefined°

Span
Click to sort rows by Start time (UTC) header in descending order
Start Az.
Max El. time (UTC)
Max El. Az.
Max El.
End time (UTC)
End Az.
4 mins2025-07-01 13:27:22.290Z181.405° SSW2025-07-01 13:29:22.290Z148.222° SSE15.74°2025-07-01 13:31:22.290Z111.521° ESE
5 mins2025-07-01 15:06:22.290Z236.397° WSW2025-07-01 15:08:22.290Z127.42° SE43.088°2025-07-01 15:11:22.290Z74.743° E
5 mins2025-07-01 16:45:22.290Z288.73° WNW2025-07-01 16:47:22.290Z5.504° NNE38.489°2025-07-01 16:50:22.290Z71.579° E
5 mins2025-07-01 18:24:22.290Z294.645° NW2025-07-01 18:26:22.290Z5.471° NNE42.98°2025-07-01 18:29:22.290Z95.773° ESE
5 mins2025-07-01 20:03:22.290Z262.314° W2025-07-01 20:05:22.290Z205.347° SW30.187°2025-07-01 20:08:22.290Z144.867° SSE
|